Location: Góry Miechowskie
(50.3599°N, 20.1803°E)
Time: 04:28:23
(UTC+00:00)

Cosmos 2228 - Pass Details

Date: 26 September 2024
Orbit: 574 x 600 km, 82.5° (Epoch: 11 October)

Event Time Altitude Azimuth Distance (km) Brightness Sun altitude
Exits shadow 00:44:45 17° 2° (N) 1,539 5.5 -33.4°
Drops below altitude 10° 00:45:51 10° 5° (N) 1,966 6.2 -33.3°
Sets 00:48:04 0° 8° (N) 2,866 7.2 -33.0°
